Location: Greenwich
(51.4790°N, 0.0090°E)
Time: 13:28:59
(UTC+01:00)

Altair - Pass Details

Date: 25 June 2025
Orbit: 1502 x 1682 km, 47.2° (Epoch: 19 July)

Event Time Altitude Azimuth Distance (km) Brightness Sun altitude
Rises 00:03:17 0° 246° (WSW) 4,633 9.9 -14.0°
Reaches altitude 10° 00:06:19 10° 244° (WSW) 3,659 9.3 -14.1°
Maximum altitude 00:15:20 63° 166° (SSE) 1,678 7.4 -14.4°
Drops below altitude 10° 00:24:40 10° 88° (E) 3,769 9.5 -14.7°
Sets 00:27:49 0° 86° (E) 4,779 10.1 -14.7°
